STARLINK-32600, 62178

Orbit data source: Space-Track

STARLINK-32600, 62178 is a payload satellite owned by SpaceX/Seattle (US) in LEO that was launched on Sat, 30 Nov 2024 UTC via an FALCON 9 launch vehicle from the Air Force Western Test Range (AFWTR). Payload-class satellites include a variety of spacecraft equipped with specific instruments for various scientific and technological missions. These include communications satellites like Starlink; space stations such as the ISS; scientific satellites like the Hubble; Earth observation satellites from companies like Planet Labs, Umbra, and HawkEye 360; GPS; miniature CubeSats for education and research; and military/defense satellites.

Loading next visibility...
Identifier
62178, 2024-225R
Orbit
LEO
Country
Flag of USUS
Related business
Manufacturer
SpaceX/Seattle
Mission
Operational Commercial Communications
Bus & Motor
STARLINK V2M, Unknown motor
Mass
730 kg wet, ~700 kg dry
Launch date (UTC)
2024-11-30 (1 year ago)
Launch vehicle
FALCON 9
Launch site
Air Force Western Test Range (AFWTR)
Object type
Payload
Rocket body
Debris
Shape & HBR
Box + 2 Pan, 17.7 m
Radar Cross Section
33.884 m², Large (>1 m²)

Expand to show TLE details & history
Last TLE update: 15 hours ago

TLE from 15 hours ago
0 STARLINK-32600
1 62178U 24225R   26062.69144632  .00011899  00000-0  10033-2 0  9997
2 62178  70.0023 169.6887 0003485 267.8045  92.2715 14.98331627 69224
Epoch: 2026-03-03T16:35Z
TLE epoch observation values (Epoch: 2026-03-03T16:35:40.962Z)
Latitude
-0°
Longitude
119.30115°
Altitude
574.572 km
Speed
7.574 km/s
True Right ascension
11h 18m 45s
True Declination
0° 00' 00"
Sunlit
Object was in full shadow at epoch
Visualization orbit readout
Latitude
Unknown
Longitude
Unknown
Altitude
Unknown
Speed
Unknown
Apparent Right ascension
Unknown
Apparent Declination
Unknown
Sunlit
N/A
Visualization observer readout
Local Sidereal Time
11:24:36
Azimuth
Unknown
Elevation
Unknown
Doppler factor
Unknown
Orbital elements
Apogee altitude
572.42 km
Perigee altitude
567.577 km
Semi-major axis
6,948.136 km
Eccentricity
0.00035
Inclination
70.0023°
RAAN
169.6887°
Arg. of periapsis
267.8045°
True anomaly
92.3114°
Mean anomaly
92.2715°
Eccentric anomaly
92.29145°
Mean motion
3.74749 °/min
Orbital period
96.06 mins
BSTAR
0.0010033
Loading maneuver chart data...
Computing Atmospheric mass density...
Loading historical data...
Loading historical data...
Loading historical data...
Loading historical data...
Loading historical data...
Loading historical data...
Loading historical data...

Documentation

Showing up to 5 results
|